QPF
0.08 0.10 0.15 0.15 0.14 0.13 0.14 0.15 0.18 0.20 0.17 0.15 0.14 0.13 0.09 0.08 0.06 0.05 0.04 0.04 0.04 0.05 0.05 0.04 0.05 0.04 0.03 0.02 0.01 0.01 0.01 0.01 0.02 0.03 0.03 0.02 0.01 0.01 0.02 0.03 0.03 0.05 0.05
0.08 0.08 0.13 0.12 0.11 0.14 0.17 0.19 0.21 0.20 0.18 0.15 0.14 0.12 0.09 0.06 0.04 0.03 0.02 0.02 0.04 0.06 0.07 0.07 0.06 0.04 0.04 0.03 0.02 0.01 0.01 0.01 0.01 0.02 0.03 0.03 0.03 0.02 0.02 0.03 0.03 0.03 0.04
0.09 0.07 0.10 0.11 0.12 0.15 0.18 0.21 0.25 0.23 0.19 0.16 0.11 0.08 0.07 0.06 0.05 0.03 0.03 0.03 0.04 0.07 0.07 0.06 0.06 0.05 0.04 0.03 0.02 0.01 0.01 0.01 0.01 0.02 0.03 0.03 0.02 0.02 0.03 0.04 0.03 0.04 0.04
0.08 0.10 0.13 0.15 0.13 0.14 0.19 0.21 0.22 0.20 0.19 0.16 0.11 0.08 0.07 0.06 0.05 0.04 0.03 0.03 0.03 0.03 0.04 0.05 0.05 0.05 0.04 0.03 0.02 0.02 0.01 0.02 0.02 0.02 0.03 0.03 0.02 0.03 0.04 0.06 0.06 0.06 0.05
0.05 0.08 0.11 0.12 0.15 0.17 0.17 0.15 0.12 0.11 0.12 0.11 0.10 0.08 0.06 0.05 0.04 0.04 0.04 0.04 0.04 0.04 0.04 0.05 0.05 0.04 0.03 0.02 0.01 0.01 0.01 0.02 0.03 0.03 0.03 0.03 0.02 0.03 0.05 0.07 0.09 0.11 0.10
0.05 0.06 0.08 0.09 0.09 0.08 0.09 0.10 0.12 0.11 0.11 0.09 0.07 0.06 0.05 0.04 0.03 0.03 0.03 0.03 0.03 0.02 0.02 0.01 0.01 0.01 0.00 0.00 0.01 0.01 0.01 0.02 0.03 0.04 0.03 0.03 0.04 0.04 0.05 0.06 0.08 0.10 0.11
0.04 0.05 0.08 0.08 0.08 0.07 0.08 0.10 0.11 0.13 0.13 0.09 0.06 0.05 0.04 0.03 0.02 0.02 0.02 0.01 0.01 0.01 0.01 0.00 0.00 0.00 0.00 0.00 0.00 0.00 0.01 0.01 0.02 0.03 0.03 0.04 0.07 0.05 0.04 0.07 0.08 0.08 0.10
0.03 0.04 0.05 0.05 0.06 0.07 0.06 0.08 0.09 0.10 0.10 0.07 0.06 0.03 0.03 0.03 0.02 0.02 0.02 0.02 0.01 0.01 0.01 0.01 0.00 0.00 0.00 0.00 0.00 0.00 0.00 0.01 0.01 0.02 0.03 0.05 0.05 0.04 0.05 0.06 0.07 0.07 0.07
0.03 0.04 0.04 0.03 0.03 0.04 0.04 0.06 0.07 0.07 0.07 0.05 0.04 0.03 0.03 0.03 0.02 0.03 0.03 0.02 0.01 0.01 0.01 0.01 0.01 0.01 0.00 0.00 0.00 0.00 0.00 0.01 0.01 0.01 0.02 0.05 0.06 0.05 0.05 0.07 0.07 0.06 0.07
0.03 0.02 0.03 0.03 0.03 0.04 0.06 0.07 0.08 0.08 0.06 0.04 0.04 0.03 0.03 0.02 0.02 0.02 0.02 0.03 0.03 0.03 0.03 0.03 0.02 0.01 0.01 0.00 0.00 0.00 0.00 0.01 0.01 0.01 0.02 0.03 0.04 0.05 0.05 0.06 0.06 0.05 0.07
0.02 0.03 0.04 0.05 0.07 0.08 0.09 0.09 0.10 0.08 0.07 0.05 0.04 0.04 0.03 0.03 0.03 0.03 0.02 0.02 0.02 0.03 0.02 0.02 0.01 0.01 0.01 0.01 0.01 0.01 0.01 0.01 0.01 0.01 0.01 0.01 0.01 0.04 0.04 0.04 0.04 0.05 0.06
0.03 0.04 0.04 0.04 0.07 0.09 0.09 0.09 0.09 0.07 0.06 0.06 0.06 0.05 0.04 0.03 0.03 0.03 0.02 0.02 0.02 0.02 0.02 0.01 0.01 0.01 0.01 0.01 0.01 0.02 0.01 0.01 0.01 0.01 0.01 0.01 0.01 0.04 0.06 0.06 0.06 0.07 0.06
0.03 0.03 0.03 0.04 0.05 0.05 0.06 0.07 0.08 0.08 0.08 0.08 0.07 0.06 0.04 0.03 0.02 0.02 0.02 0.03 0.03 0.03 0.03 0.03 0.02 0.01 0.01 0.01 0.01 0.01 0.02 0.01 0.01 0.01 0.02 0.02 0.02 0.03 0.05 0.06 0.07 0.10 0.09
0.03 0.03 0.04 0.04 0.03 0.03 0.04 0.05 0.07 0.06 0.06 0.08 0.08 0.05 0.04 0.03 0.02 0.02 0.02 0.03 0.03 0.03 0.03 0.03 0.02 0.01 0.01 0.01 0.01 0.01 0.02 0.02 0.02 0.02 0.02 0.02 0.01 0.01 0.03 0.04 0.07 0.09 0.09
0.03 0.03 0.04 0.04 0.03 0.02 0.02 0.03 0.04 0.05 0.06 0.06 0.05 0.04 0.04 0.04 0.03 0.02 0.02 0.01 0.01 0.02 0.01 0.01 0.01 0.01 0.01 0.01 0.01 0.01 0.01 0.02 0.02 0.01 0.01 0.01 0.01 0.01 0.02 0.02 0.03 0.05 0.05
0.02 0.03 0.04 0.03 0.02 0.01 0.01 0.02 0.03 0.04 0.05 0.05 0.05 0.05 0.05 0.04 0.02 0.01 0.01 0.01 0.01 0.02 0.02 0.02 0.02 0.02 0.02 0.02 0.02 0.01 0.01 0.01 0.01 0.01 0.01 0.01 0.01 0.01 0.01 0.01 0.01 0.01 0.03
0.02 0.02 0.03 0.04 0.03 0.02 0.02 0.02 0.02 0.03 0.04 0.04 0.05 0.05 0.05 0.05 0.03 0.02 0.02 0.01 0.02 0.02 0.02 0.02 0.03 0.02 0.02 0.02 0.01 0.01 0.01 0.01 0.01 0.01 0.01 0.01 0.01 0.01 0.01 0.01 0.00 0.01 0.01
0.02 0.02 0.02 0.03 0.03 0.03 0.03 0.03 0.03 0.03 0.04 0.04 0.04 0.05 0.04 0.04 0.03 0.02 0.02 0.02 0.02 0.02 0.02 0.03 0.03 0.03 0.02 0.01 0.01 0.02 0.01 0.01 0.01 0.01 0.01 0.01 0.01 0.01 0.01 0.01 0.01 0.01 0.01
0.01 0.01 0.02 0.03 0.03 0.03 0.04 0.04 0.03 0.02 0.03 0.03 0.03 0.03 0.04 0.04 0.04 0.04 0.04 0.04 0.04 0.03 0.03 0.03 0.03 0.02 0.01 0.01 0.01 0.01 0.01 0.01 0.01 0.01 0.01 0.01 0.01 0.02 0.02 0.01 0.01 0.01 0.01
0.02 0.02 0.03 0.03 0.03 0.02 0.03 0.03 0.03 0.03 0.02 0.03 0.03 0.03 0.04 0.05 0.04 0.04 0.06 0.07 0.07 0.07 0.06 0.04 0.03 0.02 0.02 0.01 0.01 0.01 0.01 0.01 0.01 0.01 0.01 0.01 0.01 0.01 0.01 0.01 0.01 0.01 0.01
0.03 0.02 0.02 0.03 0.02 0.02 0.02 0.03 0.03 0.03 0.03 0.03 0.04 0.05 0.05 0.05 0.04 0.04 0.04 0.05 0.06 0.07 0.05 0.04 0.03 0.02 0.01 0.01 0.00 0.00 0.00 0.00 0.01 0.01 0.01 0.01 0.01 0.00 0.01 0.01 0.01 0.02 0.02
0.04 0.02 0.02 0.02 0.02 0.02 0.02 0.03 0.03 0.03 0.04 0.04 0.04 0.05 0.05 0.06 0.05 0.04 0.03 0.03 0.04 0.05 0.04 0.03 0.01 0.01 0.00 0.00 0.00 0.00 0.00 0.00 0.01 0.01 0.01 0.01 0.00 0.00 0.00 0.00 0.01 0.01 0.02
0.03 0.02 0.02 0.02 0.03 0.03 0.04 0.04 0.04 0.04 0.03 0.04 0.04 0.05 0.08 0.08 0.09 0.08 0.05 0.03 0.03 0.03 0.03 0.02 0.02 0.01 0.01 0.01 0.00 0.00 0.00 0.00 0.01 0.01 0.01 0.01 0.01 0.00 0.00 0.00 0.00 0.01 0.01
0.03 0.02 0.02 0.02 0.02 0.04 0.05 0.05 0.04 0.04 0.03 0.03 0.03 0.04 0.06 0.07 0.06 0.05 0.04 0.02 0.02 0.01 0.01 0.01 0.01 0.01 0.01 0.01 0.01 0.01 0.00 0.00 0.01 0.01 0.01 0.01 0.01 0.01 0.00 0.00 0.01 0.01 0.01
0.02 0.02 0.02 0.03 0.04 0.05 0.06 0.06 0.06 0.05 0.04 0.03 0.02 0.03 0.03 0.03 0.02 0.02 0.02 0.02 0.02 0.01 0.01 0.01 0.01 0.01 0.01 0.01 0.01 0.01 0.01 0.01 0.01 0.01 0.01 0.01 0.01 0.01 0.01 0.01 0.01 0.01 0.02
0.03 0.02 0.03 0.05 0.05 0.07 0.08 0.07 0.07 0.06 0.04 0.03 0.02 0.02 0.02 0.02 0.02 0.01 0.01 0.01 0.01 0.01 0.01 0.01 0.01 0.01 0.02 0.01 0.02 0.01 0.01 0.01 0.01 0.01 0.01 0.02 0.02 0.02 0.02 0.02 0.02 0.02 0.02
MSLP
1011.22 1011.41 1011.57 1011.67 1011.72 1011.72 1011.72 1011.75 1011.85 1012.03 1012.30 1012.64 1013.03 1013.42 1013.80 1014.13 1014.42 1014.66 1014.88 1015.10 1015.33 1015.58 1015.87 1016.16 1016.45 1016.70 1016.90 1017.01 1017.05 1016.99 1016.87 1016.68 1016.45 1016.18 1015.89 1015.58 1015.26 1014.92 1014.57 1014.23 1013.89 1013.59 1013.32
1011.18 1011.43 1011.65 1011.79 1011.85 1011.86 1011.86 1011.89 1012.00 1012.21 1012.52 1012.91 1013.35 1013.79 1014.19 1014.53 1014.80 1015.02 1015.20 1015.39 1015.60 1015.86 1016.15 1016.46 1016.77 1017.03 1017.22 1017.31 1017.31 1017.21 1017.03 1016.80 1016.54 1016.27 1015.99 1015.72 1015.43 1015.13 1014.81 1014.47 1014.13 1013.80 1013.49
1011.10 1011.43 1011.72 1011.92 1012.02 1012.05 1012.05 1012.09 1012.22 1012.45 1012.80 1013.24 1013.73 1014.20 1014.63 1014.97 1015.23 1015.41 1015.56 1015.70 1015.88 1016.11 1016.40 1016.71 1017.01 1017.26 1017.44 1017.51 1017.47 1017.34 1017.13 1016.89 1016.63 1016.37 1016.13 1015.90 1015.66 1015.41 1015.11 1014.78 1014.43 1014.06 1013.70
1011.05 1011.47 1011.84 1012.10 1012.25 1012.30 1012.33 1012.37 1012.51 1012.76 1013.14 1013.61 1014.12 1014.63 1015.07 1015.41 1015.65 1015.80 1015.91 1016.01 1016.15 1016.35 1016.60 1016.88 1017.17 1017.41 1017.56 1017.61 1017.56 1017.41 1017.20 1016.96 1016.72 1016.50 1016.31 1016.13 1015.94 1015.73 1015.46 1015.13 1014.75 1014.34 1013.92
1011.07 1011.58 1012.03 1012.36 1012.56 1012.65 1012.68 1012.74 1012.87 1013.13 1013.51 1013.99 1014.52 1015.04 1015.48 1015.82 1016.04 1016.17 1016.24 1016.30 1016.40 1016.55 1016.76 1017.01 1017.26 1017.48 1017.61 1017.65 1017.59 1017.44 1017.24 1017.02 1016.82 1016.64 1016.50 1016.37 1016.22 1016.03 1015.77 1015.44 1015.03 1014.57 1014.09
1011.19 1011.79 1012.32 1012.71 1012.96 1013.08 1013.13 1013.19 1013.31 1013.55 1013.92 1014.39 1014.91 1015.42 1015.86 1016.18 1016.39 1016.50 1016.55 1016.57 1016.63 1016.74 1016.90 1017.11 1017.32 1017.50 1017.61 1017.64 1017.57 1017.43 1017.25 1017.06 1016.89 1016.76 1016.65 1016.55 1016.43 1016.26 1016.00 1015.65 1015.21 1014.71 1014.18
1011.41 1012.08 1012.68 1013.15 1013.45 1013.60 1013.66 1013.71 1013.81 1014.03 1014.36 1014.79 1015.28 1015.77 1016.19 1016.50 1016.70 1016.80 1016.82 1016.82 1016.84 1016.91 1017.03 1017.19 1017.36 1017.50 1017.58 1017.59 1017.52 1017.39 1017.22 1017.05 1016.90 1016.79 1016.70 1016.62 1016.51 1016.34 1016.07 1015.71 1015.25 1014.72 1014.16
1011.68 1012.43 1013.11 1013.63 1013.98 1014.17 1014.24 1014.28 1014.36 1014.53 1014.82 1015.20 1015.64 1016.09 1016.48 1016.78 1016.96 1017.05 1017.06 1017.05 1017.04 1017.08 1017.15 1017.26 1017.38 1017.48 1017.53 1017.51 1017.42 1017.28 1017.11 1016.95 1016.80 1016.69 1016.60 1016.52 1016.40 1016.22 1015.95 1015.59 1015.13 1014.60 1014.03
1011.98 1012.79 1013.54 1014.13 1014.53 1014.75 1014.84 1014.87 1014.92 1015.05 1015.28 1015.60 1015.98 1016.37 1016.73 1017.00 1017.17 1017.24 1017.26 1017.23 1017.21 1017.22 1017.25 1017.32 1017.38 1017.43 1017.43 1017.36 1017.24 1017.08 1016.89 1016.71 1016.55 1016.42 1016.32 1016.21 1016.08 1015.90 1015.63 1015.28 1014.84 1014.34 1013.80
1012.25 1013.13 1013.93 1014.57 1015.02 1015.28 1015.39 1015.42 1015.46 1015.54 1015.71 1015.97 1016.28 1016.61 1016.91 1017.14 1017.30 1017.37 1017.38 1017.35 1017.32 1017.31 1017.31 1017.33 1017.34 1017.32 1017.26 1017.15 1016.98 1016.77 1016.55 1016.33 1016.14 1015.98 1015.84 1015.72 1015.57 1015.39 1015.14 1014.81 1014.42 1013.97 1013.49
1012.46 1013.39 1014.23 1014.92 1015.40 1015.70 1015.83 1015.88 1015.90 1015.95 1016.07 1016.26 1016.51 1016.77 1017.01 1017.21 1017.34 1017.40 1017.41 1017.38 1017.35 1017.31 1017.28 1017.26 1017.21 1017.14 1017.01 1016.84 1016.61 1016.35 1016.08 1015.82 1015.59 1015.39 1015.22 1015.07 1014.92 1014.74 1014.51 1014.24 1013.90 1013.53 1013.12
1012.61 1013.56 1014.42 1015.13 1015.64 1015.96 1016.12 1016.19 1016.21 1016.24 1016.32 1016.46 1016.64 1016.84 1017.03 1017.18 1017.28 1017.33 1017.33 1017.31 1017.27 1017.22 1017.16 1017.09 1016.99 1016.86 1016.67 1016.43 1016.14 1015.83 1015.51 1015.20 1014.93 1014.70 1014.50 1014.34 1014.18 1014.02 1013.82 1013.60 1013.33 1013.03 1012.70
1012.70 1013.64 1014.49 1015.19 1015.71 1016.04 1016.23 1016.31 1016.35 1016.38 1016.44 1016.53 1016.66 1016.81 1016.94 1017.05 1017.12 1017.16 1017.15 1017.12 1017.07 1017.01 1016.93 1016.82 1016.68 1016.49 1016.24 1015.94 1015.60 1015.23 1014.87 1014.53 1014.22 1013.97 1013.76 1013.58 1013.43 1013.28 1013.12 1012.94 1012.73 1012.49 1012.24
1012.75 1013.64 1014.45 1015.11 1015.61 1015.95 1016.15 1016.26 1016.32 1016.36 1016.41 1016.49 1016.58 1016.68 1016.77 1016.84 1016.88 1016.90 1016.88 1016.85 1016.79 1016.71 1016.61 1016.47 1016.28 1016.04 1015.74 1015.39 1015.00 1014.60 1014.20 1013.84 1013.52 1013.25 1013.03 1012.86 1012.71 1012.58 1012.43 1012.28 1012.11 1011.91 1011.70
1012.76 1013.59 1014.31 1014.92 1015.38 1015.70 1015.92 1016.05 1016.14 1016.21 1016.27 1016.34 1016.41 1016.48 1016.54 1016.58 1016.59 1016.59 1016.56 1016.51 1016.44 1016.35 1016.22 1016.05 1015.82 1015.53 1015.19 1014.80 1014.38 1013.95 1013.53 1013.16 1012.83 1012.57 1012.35 1012.18 1012.04 1011.91 1011.77 1011.62 1011.46 1011.28 1011.09
1012.76 1013.49 1014.12 1014.64 1015.05 1015.36 1015.58 1015.74 1015.86 1015.96 1016.05 1016.13 1016.20 1016.26 1016.29 1016.30 1016.29 1016.26 1016.21 1016.15 1016.06 1015.95 1015.80 1015.59 1015.33 1015.00 1014.62 1014.20 1013.75 1013.30 1012.88 1012.51 1012.19 1011.93 1011.72 1011.55 1011.41 1011.27 1011.12 1010.96 1010.78 1010.58 1010.37
1012.75 1013.37 1013.90 1014.34 1014.69 1014.97 1015.19 1015.38 1015.54 1015.68 1015.80 1015.91 1015.98 1016.03 1016.05 1016.04 1016.01 1015.95 1015.88 1015.80 1015.69 1015.55 1015.36 1015.12 1014.82 1014.46 1014.04 1013.59 1013.12 1012.66 1012.24 1011.87 1011.56 1011.31 1011.11 1010.94 1010.79 1010.63 1010.46 1010.26 1010.04 1009.81 1009.57
1012.72 1013.24 1013.68 1014.04 1014.34 1014.60 1014.83 1015.04 1015.24 1015.42 1015.58 1015.70 1015.79 1015.84 1015.85 1015.82 1015.76 1015.68 1015.59 1015.47 1015.33 1015.16 1014.93 1014.65 1014.31 1013.91 1013.46 1012.98 1012.50 1012.03 1011.61 1011.24 1010.94 1010.69 1010.49 1010.32 1010.15 1009.97 1009.76 1009.52 1009.25 1008.97 1008.69
1012.67 1013.12 1013.49 1013.79 1014.05 1014.30 1014.53 1014.77 1014.99 1015.21 1015.40 1015.54 1015.64 1015.69 1015.69 1015.64 1015.56 1015.45 1015.32 1015.17 1014.99 1014.78 1014.51 1014.19 1013.81 1013.36 1012.88 1012.37 1011.86 1011.39 1010.96 1010.59 1010.29 1010.04 1009.84 1009.66 1009.47 1009.26 1009.02 1008.73 1008.42 1008.09 1007.77
1012.61 1013.01 1013.34 1013.61 1013.85 1014.09 1014.33 1014.58 1014.83 1015.07 1015.27 1015.43 1015.53 1015.57 1015.56 1015.49 1015.38 1015.24 1015.08 1014.89 1014.67 1014.41 1014.10 1013.73 1013.30 1012.82 1012.30 1011.76 1011.23 1010.73 1010.29 1009.92 1009.61 1009.36 1009.14 1008.95 1008.74 1008.51 1008.23 1007.91 1007.56 1007.20 1006.84
1012.55 1012.94 1013.24 1013.50 1013.74 1013.97 1014.22 1014.48 1014.74 1014.99 1015.20 1015.35 1015.45 1015.47 1015.44 1015.34 1015.21 1015.03 1014.83 1014.60 1014.34 1014.03 1013.68 1013.26 1012.79 1012.26 1011.71 1011.14 1010.59 1010.07 1009.61 1009.23 1008.90 1008.64 1008.41 1008.19 1007.97 1007.71 1007.41 1007.07 1006.70 1006.32 1005.95
1012.50 1012.89 1013.21 1013.47 1013.71 1013.95 1014.20 1014.46 1014.72 1014.95 1015.15 1015.29 1015.36 1015.37 1015.30 1015.18 1015.01 1014.81 1014.57 1014.30 1013.99 1013.64 1013.24 1012.78 1012.26 1011.70 1011.11 1010.52 1009.94 1009.41 1008.93 1008.52 1008.18 1007.90 1007.65 1007.41 1007.17 1006.89 1006.58 1006.23 1005.85 1005.47 1005.09
1012.48 1012.89 1013.22 1013.49 1013.74 1013.98 1014.23 1014.48 1014.72 1014.93 1015.10 1015.21 1015.26 1015.23 1015.14 1014.99 1014.79 1014.55 1014.28 1013.97 1013.62 1013.22 1012.77 1012.27 1011.72 1011.13 1010.51 1009.90 1009.30 1008.75 1008.26 1007.83 1007.47 1007.16 1006.89 1006.63 1006.37 1006.08 1005.76 1005.40 1005.03 1004.65 1004.29
1012.50 1012.92 1013.26 1013.55 1013.81 1014.05 1014.28 1014.51 1014.72 1014.90 1015.03 1015.11 1015.12 1015.06 1014.94 1014.76 1014.53 1014.26 1013.95 1013.60 1013.20 1012.77 1012.28 1011.74 1011.15 1010.53 1009.90 1009.27 1008.66 1008.10 1007.60 1007.16 1006.78 1006.46 1006.16 1005.88 1005.60 1005.30 1004.97 1004.61 1004.24 1003.87 1003.52
1012.53 1012.97 1013.33 1013.62 1013.87 1014.11 1014.32 1014.51 1014.69 1014.83 1014.92 1014.96 1014.94 1014.85 1014.70 1014.49 1014.23 1013.93 1013.58 1013.18 1012.75 1012.27 1011.74 1011.16 1010.55 1009.91 1009.26 1008.62 1008.02 1007.46 1006.96 1006.52 1006.13 1005.79 1005.48 1005.19 1004.88 1004.57 1004.23 1003.87 1003.50 1003.14 1002.80
1012.58 1013.02 1013.38 1013.67 1013.91 1014.12 1014.31 1014.47 1014.60 1014.70 1014.76 1014.76 1014.71 1014.59 1014.42 1014.18 1013.89 1013.55 1013.16 1012.73 1012.24 1011.71 1011.14 1010.53 1009.89 1009.24 1008.59 1007.96 1007.36 1006.82 1006.33 1005.91 1005.53 1005.19 1004.88 1004.57 1004.25 1003.92 1003.57 1003.21 1002.84 1002.48 1002.14
Thickness
5730 5729 5726 5723 5720 5718 5716 5714 5710 5707 5704 5700 5695 5690 5687 5684 5682 5680 5677 5674 5671 5668 5664 5661 5657 5654 5650 5647 5645 5642 5640 5638 5636 5635 5635 5637 5637 5638 5640 5641 5642 5645 5647
5724 5723 5721 5718 5716 5713 5711 5708 5705 5702 5700 5696 5691 5687 5683 5679 5676 5674 5670 5668 5665 5662 5659 5655 5651 5647 5644 5641 5637 5634 5632 5630 5628 5625 5625 5625 5627 5629 5632 5633 5634 5636 5638
5721 5719 5717 5714 5712 5710 5707 5705 5702 5698 5694 5691 5686 5681 5677 5673 5669 5666 5664 5661 5659 5656 5653 5649 5645 5641 5637 5634 5630 5628 5625 5622 5620 5618 5616 5615 5615 5617 5622 5624 5626 5627 5629
5719 5717 5714 5710 5709 5707 5704 5700 5697 5693 5689 5685 5681 5677 5673 5668 5665 5661 5658 5656 5653 5650 5647 5643 5639 5635 5631 5628 5624 5622 5618 5616 5613 5611 5610 5608 5608 5607 5611 5615 5617 5619 5621
5716 5713 5711 5708 5705 5701 5698 5695 5691 5687 5684 5680 5677 5673 5669 5664 5660 5656 5652 5650 5647 5644 5641 5637 5634 5630 5626 5622 5619 5616 5613 5610 5607 5605 5604 5603 5601 5601 5601 5606 5608 5610 5613
5712 5709 5707 5703 5699 5697 5693 5690 5686 5681 5679 5675 5672 5668 5663 5659 5654 5650 5647 5644 5641 5639 5635 5632 5629 5625 5621 5617 5614 5611 5608 5605 5602 5600 5599 5598 5597 5596 5596 5598 5600 5602 5604
5706 5704 5701 5698 5695 5692 5689 5685 5681 5677 5674 5670 5666 5663 5660 5656 5651 5647 5643 5640 5636 5633 5630 5627 5624 5620 5616 5612 5609 5606 5603 5601 5598 5596 5595 5593 5592 5591 5591 5591 5593 5594 5597
5703 5701 5698 5694 5691 5687 5684 5681 5676 5672 5669 5665 5662 5659 5655 5651 5648 5644 5640 5636 5632 5629 5626 5623 5619 5615 5612 5608 5605 5601 5599 5596 5594 5592 5590 5589 5588 5587 5586 5586 5586 5588 5589
5698 5696 5693 5689 5686 5682 5679 5676 5672 5668 5664 5661 5657 5654 5650 5647 5644 5640 5636 5633 5629 5626 5622 5618 5614 5611 5607 5604 5600 5597 5595 5592 5590 5588 5587 5585 5584 5583 5582 5582 5582 5582 5583
5692 5690 5688 5685 5681 5677 5674 5670 5667 5664 5660 5656 5653 5649 5646 5643 5640 5636 5632 5629 5625 5621 5618 5614 5610 5606 5603 5600 5596 5593 5591 5588 5587 5585 5583 5581 5580 5579 5578 5578 5577 5577 5578
5686 5684 5682 5679 5675 5671 5668 5665 5661 5658 5655 5652 5648 5644 5641 5638 5635 5631 5628 5625 5621 5617 5613 5610 5606 5602 5599 5596 5592 5589 5587 5585 5583 5582 5580 5579 5577 5576 5576 5575 5574 5573 5572
5680 5678 5675 5672 5668 5665 5662 5659 5656 5653 5650 5647 5643 5640 5636 5633 5629 5627 5624 5621 5617 5614 5610 5606 5602 5599 5595 5592 5588 5585 5584 5581 5580 5578 5576 5575 5574 5572 5572 5572 5571 5571 5570
5673 5670 5668 5665 5663 5661 5657 5654 5652 5649 5646 5643 5639 5635 5632 5629 5626 5623 5621 5617 5613 5609 5606 5602 5598 5595 5592 5589 5586 5583 5581 5579 5577 5575 5573 5572 5570 5570 5569 5569 5569 5568 5568
5667 5664 5661 5660 5658 5656 5653 5650 5647 5645 5642 5638 5635 5632 5630 5627 5623 5620 5617 5613 5609 5605 5602 5599 5596 5593 5589 5586 5583 5581 5579 5576 5574 5572 5570 5569 5568 5567 5567 5567 5566 5566 5565
5661 5659 5656 5654 5653 5651 5649 5647 5644 5641 5638 5634 5631 5629 5626 5623 5620 5617 5613 5609 5605 5602 5599 5595 5593 5590 5587 5584 5581 5578 5577 5574 5572 5570 5569 5568 5567 5566 5565 5565 5564 5563 5563
5658 5656 5654 5652 5650 5647 5645 5643 5641 5638 5635 5632 5629 5626 5623 5620 5618 5615 5610 5606 5602 5599 5596 5593 5590 5587 5585 5582 5579 5576 5574 5572 5569 5568 5567 5566 5566 5565 5564 5563 5563 5562 5560
5656 5654 5651 5649 5646 5643 5642 5639 5637 5634 5631 5628 5626 5624 5620 5618 5616 5613 5608 5603 5599 5596 5594 5591 5587 5585 5583 5580 5578 5575 5573 5570 5568 5566 5565 5565 5565 5564 5563 5562 5561 5560 5559
5653 5651 5648 5645 5642 5640 5638 5635 5632 5630 5627 5624 5623 5621 5618 5614 5612 5609 5605 5601 5597 5594 5591 5588 5585 5582 5581 5578 5576 5574 5572 5569 5567 5565 5564 5563 5563 5562 5560 5560 5559 5559 5558
5651 5648 5645 5641 5638 5635 5633 5630 5628 5625 5623 5621 5620 5618 5615 5611 5608 5605 5602 5598 5595 5592 5589 5586 5583 5580 5579 5577 5574 5572 5569 5568 5566 5565 5564 5562 5561 5560 5558 5557 5557 5557 5557
5646 5643 5640 5637 5634 5631 5628 5625 5623 5621 5619 5619 5617 5615 5612 5609 5606 5603 5599 5596 5592 5590 5587 5585 5582 5579 5578 5576 5573 5570 5567 5566 5565 5565 5564 5562 5560 5558 5556 5555 5554 5554 5555
5642 5639 5636 5633 5630 5627 5624 5621 5619 5617 5618 5617 5614 5612 5610 5606 5603 5600 5597 5593 5591 5588 5585 5583 5581 5578 5577 5575 5572 5569 5566 5564 5564 5563 5563 5561 5559 5557 5555 5553 5552 5552 5552
5637 5635 5631 5628 5626 5624 5621 5619 5616 5616 5616 5614 5612 5609 5607 5604 5601 5598 5595 5592 5589 5586 5583 5580 5579 5577 5575 5573 5571 5569 5565 5563 5561 5561 5561 5559 5558 5556 5555 5553 5552 5551 5549
5634 5631 5628 5625 5623 5622 5620 5617 5616 5615 5613 5611 5609 5607 5604 5601 5598 5595 5592 5590 5587 5584 5581 5578 5576 5576 5574 5573 5570 5567 5565 5562 5560 5559 5558 5557 5556 5555 5554 5553 5552 5550 5549
5631 5628 5626 5623 5621 5620 5619 5617 5616 5614 5612 5609 5607 5604 5601 5599 5596 5593 5591 5587 5585 5582 5580 5578 5576 5575 5573 5571 5569 5566 5564 5561 5559 5557 5556 5555 5554 5553 5552 5551 5550 5549 5547
5628 5627 5624 5622 5621 5619 5617 5616 5614 5612 5609 5607 5605 5602 5599 5596 5593 5591 5589 5586 5585 5582 5579 5577 5575 5573 5572 5570 5566 5562 5560 5558 5556 5553 5552 5552 5552 5551 5550 5549 5548 5546 5545
5626 5624 5623 5621 5620 5618 5617 5616 5614 5611 5608 5605 5603 5600 5597 5594 5592 5589 5588 5587 5584 5583 5580 5577 5574 5572 5569 5567 5563 5560 5557 5554 5551 5549 5549 5548 5547 5546 5546 5545 5545 5543 5542